ECMWFFLT2_850_dewp_210.txt.gz
Dewpoint
10 10 10 10 10 10 9 9 9 9 9 8 8 9 9 8 8 8 8 9 8 8 8 8 7 7 6 6 5 4 2 -2 -6 -8 -7 -9 -14 -17 -23 -31 -32 -38 -34 -27 -12 -3 1 3 4 4 3 3
10 10 10 10 9 9 9 9 9 8 9 8 9 9 9 8 8 8 8 8 8 7 7 7 7 6 6 5 4 3 2 -2 -7 -10 -10 -11 -16 -20 -26 -35 -34 -37 -35 -34 -26 -12 -7 -4 -2 -2 -2 -1
9 9 9 9 9 9 8 8 8 8 8 8 9 9 8 8 8 8 7 7 7 7 7 7 6 6 6 5 4 3 2 -1 -8 -13 -13 -16 -19 -26 -30 -34 -35 -34 -36 -34 -34 -25 -17 -13 -10 -8 -5 -2
9 9 9 9 9 8 7 7 7 7 8 8 8 9 8 8 8 8 7 7 7 7 7 7 6 6 5 5 5 2 1 -1 -8 -16 -15 -21 -24 -29 -34 -34 -37 -35 -36 -35 -35 -29 -18 -16 -13 -8 -4 -3
9 9 9 9 8 7 7 7 7 7 8 8 8 8 8 8 8 7 7 7 7 7 7 7 6 6 6 5 5 3 -1 -2 -8 -20 -21 -26 -32 -32 -36 -34 -36 -36 -36 -36 -37 -30 -19 -16 -14 -10 -6 -4
9 9 9 8 8 7 8 7 7 7 7 8 8 8 8 8 7 7 7 7 7 7 7 7 7 6 6 6 5 4 0 -5 -9 -21 -31 -31 -35 -33 -35 -36 -36 -36 -37 -36 -37 -35 -26 -21 -17 -16 -12 -10
9 10 9 8 8 8 8 7 7 7 7 7 7 7 7 7 7 7 7 7 7 7 7 7 6 6 6 6 5 5 3 -4 -12 -20 -35 -35 -34 -36 -35 -35 -36 -35 -36 -36 -36 -36 -34 -31 -27 -26 -23 -21
10 10 9 8 8 8 8 7 7 7 7 7 7 6 6 7 7 7 7 7 7 7 7 6 6 6 6 6 6 5 5 -0 -12 -21 -31 -34 -33 -35 -34 -35 -35 -35 -36 -36 -37 -37 -37 -37 -34 -35 -34 -34
10 9 9 8 8 8 7 7 7 7 7 6 6 6 6 6 6 6 6 6 6 6 6 6 6 6 6 5 5 5 5 1 -11 -23 -28 -34 -34 -34 -34 -35 -34 -34 -37 -35 -35 -35 -36 -37 -37 -37 -35 -35
10 9 9 9 8 7 7 7 7 7 6 6 6 6 6 6 6 5 6 6 6 6 5 6 6 6 5 5 4 4 3 -1 -12 -24 -29 -33 -32 -33 -34 -33 -34 -34 -34 -35 -36 -36 -36 -36 -36 -36 -36 -36
10 9 9 9 8 7 8 7 7 7 6 6 6 6 6 6 5 5 5 5 5 5 5 5 5 5 5 5 4 2 -1 -7 -15 -22 -29 -33 -33 -34 -34 -32 -34 -34 -33 -35 -34 -33 -33 -35 -35 -35 -35 -35
10 9 9 9 8 8 8 7 7 7 6 6 6 6 6 6 6 5 5 5 5 5 4 4 4 4 4 4 3 0 -6 -13 -19 -21 -22 -27 -32 -32 -33 -34 -33 -31 -31 -31 -33 -35 -34 -34 -34 -34 -34 -34
9 9 9 9 8 8 8 8 7 7 6 6 6 6 6 6 5 5 5 5 5 4 4 4 3 2 2 3 2 -2 -8 -17 -22 -24 -23 -26 -29 -28 -31 -30 -27 -25 -22 -22 -25 -29 -33 -33 -34 -34 -33 -34
9 9 9 9 8 8 8 8 7 7 7 7 6 6 6 6 5 5 5 5 5 4 4 4 3 1 1 2 -0 -5 -12 -18 -19 -20 -21 -21 -20 -19 -19 -19 -17 -16 -15 -17 -19 -23 -30 -32 -32 -34 -33 -33
9 9 9 9 8 8 8 7 7 7 7 7 6 6 6 6 6 5 5 5 5 4 4 4 4 2 -2 -3 -5 -10 -15 -18 -17 -17 -17 -16 -15 -14 -14 -14 -15 -13 -12 -11 -12 -16 -22 -26 -29 -31 -34 -34
9 9 9 9 9 8 8 7 7 7 7 6 6 6 6 5 5 5 5 5 5 5 4 4 4 3 -0 -4 -8 -12 -15 -16 -17 -17 -17 -17 -16 -15 -15 -15 -15 -15 -14 -11 -10 -13 -17 -21 -27 -29 -32 -35
9 9 8 8 8 8 8 7 7 7 7 6 6 6 6 5 5 5 5 5 5 4 4 4 4 4 3 0 -4 -9 -13 -15 -16 -17 -18 -19 -18 -18 -17 -17 -18 -18 -18 -18 -17 -16 -16 -18 -20 -23 -25 -27
9 9 8 8 8 8 8 7 7 7 7 6 6 6 6 6 5 5 5 5 5 4 4 4 3 3 3 2 -1 -4 -7 -9 -9 -9 -11 -12 -13 -14 -14 -15 -16 -17 -18 -19 -19 -18 -18 -17 -16 -16 -17 -19
9 8 8 8 8 8 7 7 7 7 7 6 6 6 6 6 5 5 5 5 4 4 4 4 3 2 2 1 0 -1 -1 -2 -2 -2 -3 -4 -6 -8 -9 -10 -10 -11 -12 -12 -12 -13 -13 -13 -12 -12 -15 -18
9 8 8 8 8 8 7 7 7 7 7 7 6 6 6 6 6 5 5 4 4 4 4 3 3 2 2 1 1 1 0 -0 -1 -1 -2 -3 -4 -6 -6 -7 -7 -6 -6 -6 -7 -8 -9 -9 -10 -12 -15 -18
8 8 7 8 8 8 7 7 7 6 7 6 6 6 6 6 5 5 5 4 4 4 4 3 3 3 2 2 1 1 1 0 -1 -1 -2 -2 -3 -5 -5 -6 -7 -7 -7 -7 -8 -10 -12 -12 -13 -15 -17 -20
7 7 7 7 7 7 7 7 6 6 6 6 6 6 6 5 5 5 5 5 5 4 4 4 3 3 2 2 2 1 1 1 -0 -1 -2 -2 -3 -3 -5 -6 -7 -8 -9 -10 -11 -13 -15 -16 -18 -19 -20 -23
7 7 7 7 7 7 7 6 6 6 6 6 6 6 6 5 5 5 5 5 4 4 4 3 3 3 2 2 1 1 0 -0 -0 -1 -2 -3 -4 -5 -6 -7 -8 -9 -10 -11 -12 -13 -15 -18 -19 -20 -21 -21
6 6 7 7 6 6 6 6 5 6 6 6 6 5 5 5 5 5 5 4 4 4 4 3 3 2 2 2 1 0 -0 -1 -2 -3 -5 -7 -8 -9 -10 -10 -11 -11 -11 -12 -12 -13 -15 -16 -17 -17 -18 -18
5 6 6 6 6 6 5 5 5 5 5 5 5 5 5 4 4 4 4 4 4 4 3 3 2 2 1 1 0 -1 -2 -3 -5 -7 -9 -11 -12 -12 -12 -13 -13 -13 -13 -13 -13 -13 -14 -14 -15 -15 -16 -16
5 5 5 5 5 5 5 5 5 5 4 4 4 4 4 4 4 4 4 3 3 3 2 2 2 1 1 1 -0 -3 -6 -8 -10 -12 -12 -13 -13 -13 -13 -13 -13 -13 -13 -13 -13 -13 -13 -13 -13 -13 -14 -14
4 4 4 4 4 4 5 4 4 4 4 3 3 3 3 3 3 3 3 3 2 2 1 1 1 1 1 -1 -3 -7 -10 -12 -12 -13 -13 -13 -13 -13 -13 -13 -13 -13 -13 -13 -13 -13 -13 -13 -13 -13 -13 -13
3 4 4 3 4 4 4 4 3 3 3 2 2 2 2 2 2 2 2 2 1 0 -0 -1 -1 -1 -2 -5 -8 -11 -12 -13 -13 -13 -13 -13 -13 -13 -13 -13 -13 -13 -13 -13 -13 -13 -13 -13 -13 -13 -13 -13
2 3 3 3 3 3 3 2 2 1 1 1 1 1 1 1 0 0 0 -0 -1 -2 -2 -3 -4 -5 -7 -10 -12 -12 -12 -13 -13 -13 -13 -13 -13 -13 -13 -13 -13 -13 -13 -13 -13 -13 -13 -13 -13 -13 -13 -13
2 2 2 2 2 2 2 1 1 0 0 -0 -1 -1 -1 -1 -1 -2 -2 -2 -3 -3 -4 -6 -8 -10 -11 -12 -12 -12 -13 -13 -13 -13 -13 -13 -13 -13 -13 -13 -13 -13 -12 -12 -12 -12 -12 -12 -12 -12 -12 -12
1 1 1 1 1 1 1 1 0 -1 -1 -2 -2 -2 -2 -3 -3 -3 -4 -4 -5 -6 -8 -10 -11 -12 -12 -12 -13 -13 -13 -13 -13 -13 -13 -13 -12 -12 -12 -12 -12 -12 -12 -12 -12 -13 -13 -13 -13 -13 -13 -14

ECMWFFLT2_850_dewp_216.txt.gz
Dewpoint
11 10 10 10 10 10 10 10 10 9 9 9 9 9 10 10 10 10 9 9 9 8 8 7 7 7 7 6 6 5 5 3 -2 -6 -6 -7 -8 -13 -18 -22 -24 -19 -16 -12 -9 -8 -6 -5 -3 -3 -3 -3
11 10 10 10 10 10 10 9 9 9 9 9 9 9 10 10 10 9 9 9 9 8 8 7 7 7 6 6 6 5 4 3 -1 -7 -8 -8 -11 -17 -25 -27 -27 -21 -17 -14 -11 -9 -8 -6 -5 -5 -5 -7
11 10 10 10 10 10 10 9 9 9 9 9 10 9 9 10 9 9 9 9 8 8 7 7 7 7 6 6 5 5 3 3 0 -7 -9 -11 -16 -23 -30 -29 -29 -24 -20 -17 -14 -11 -9 -7 -6 -7 -8 -8
11 11 10 10 10 10 10 9 9 9 8 9 10 10 10 9 9 9 9 8 8 7 7 7 7 7 6 6 5 5 2 1 -1 -8 -12 -14 -23 -29 -33 -33 -32 -29 -25 -21 -19 -15 -12 -10 -8 -8 -8 -7
11 11 10 10 10 10 10 9 9 9 9 9 9 10 9 9 9 8 8 8 8 7 7 7 7 6 6 6 6 5 3 -0 -4 -10 -15 -18 -29 -33 -33 -35 -35 -33 -32 -28 -26 -21 -18 -14 -11 -10 -9 -9
11 10 10 10 10 10 10 9 9 9 9 9 9 9 9 9 9 8 8 8 7 7 7 7 6 6 6 6 6 6 5 0 -8 -13 -16 -24 -32 -35 -35 -35 -36 -35 -35 -33 -31 -28 -24 -20 -17 -15 -14 -15
11 10 10 10 10 10 9 9 9 9 9 9 9 9 9 9 8 8 8 7 7 7 7 6 6 6 6 5 6 5 6 3 -8 -20 -19 -30 -35 -34 -36 -34 -36 -36 -35 -36 -34 -34 -31 -28 -28 -26 -27 -29
11 10 10 10 9 9 8 8 9 8 8 8 8 9 9 8 8 8 8 7 7 7 6 6 6 6 5 5 5 5 6 5 -4 -23 -28 -33 -36 -34 -37 -35 -37 -36 -35 -36 -36 -36 -35 -35 -36 -34 -35 -37
11 10 10 9 9 8 8 8 8 7 8 8 8 8 8 8 8 8 7 7 7 6 6 6 6 5 5 5 5 5 5 5 1 -15 -35 -33 -35 -35 -35 -37 -35 -37 -37 -35 -36 -35 -36 -35 -35 -37 -34 -35
10 10 9 9 8 8 8 8 7 7 7 7 8 8 8 8 7 7 7 7 6 6 5 5 5 4 4 4 5 5 5 4 1 -10 -31 -34 -36 -36 -34 -37 -34 -35 -35 -35 -37 -34 -35 -35 -33 -33 -31 -33
10 9 9 9 8 8 8 7 7 7 7 7 7 7 7 7 6 6 6 6 5 5 5 4 4 4 2 2 3 4 4 1 -2 -11 -28 -31 -33 -36 -33 -36 -34 -34 -35 -34 -35 -32 -28 -24 -21 -21 -22 -27
10 9 10 9 8 8 8 7 7 7 7 6 6 6 7 6 5 6 5 5 5 4 4 4 4 4 1 -1 1 3 0 -4 -6 -12 -26 -33 -34 -35 -34 -35 -35 -34 -34 -31 -26 -23 -19 -16 -16 -17 -20 -24
10 9 10 9 8 8 8 8 7 7 7 6 6 6 6 6 5 5 5 5 4 4 4 3 3 4 2 -3 -4 -2 -5 -10 -11 -14 -21 -28 -32 -33 -34 -33 -34 -34 -31 -27 -21 -19 -18 -18 -19 -21 -23 -25
10 9 10 9 9 8 8 8 7 7 7 6 6 6 6 6 5 5 5 5 4 4 4 4 3 3 3 -1 -5 -8 -11 -15 -16 -18 -19 -24 -28 -30 -32 -32 -33 -33 -30 -27 -23 -23 -25 -26 -26 -27 -28 -27
10 10 10 9 9 8 8 8 7 7 7 7 6 6 6 6 6 5 5 5 4 4 4 4 3 3 3 2 0 -3 -8 -13 -16 -18 -19 -20 -22 -23 -24 -25 -24 -24 -23 -23 -22 -23 -25 -27 -28 -28 -30 -29
10 10 10 9 9 8 8 8 7 7 7 7 7 6 6 6 6 6 5 5 4 4 4 3 3 3 3 3 3 2 -1 -5 -9 -12 -14 -15 -16 -16 -16 -16 -16 -17 -17 -18 -19 -20 -21 -22 -24 -25 -26 -27
10 10 9 9 9 8 8 8 8 7 7 7 7 6 6 6 6 6 5 5 5 4 4 3 3 3 2 2 2 2 2 -0 -2 -4 -5 -7 -8 -9 -10 -10 -10 -11 -12 -12 -13 -13 -14 -14 -15 -16 -16 -16
10 10 9 9 9 8 8 8 8 7 7 7 7 6 6 6 6 6 5 5 5 4 4 3 3 3 3 2 1 1 1 1 1 1 1 -0 -1 -1 -2 -2 -3 -4 -5 -5 -6 -5 -5 -6 -6 -6 -7 -7
9 9 9 9 8 8 8 8 8 7 7 7 7 6 6 6 6 6 5 5 5 4 4 4 4 3 3 2 2 1 1 1 1 1 1 2 1 1 1 0 -0 -1 -2 -2 -3 -3 -3 -3 -4 -4 -4 -5
9 8 8 9 8 8 8 8 7 7 7 7 7 6 6 6 6 5 5 5 5 5 4 4 4 3 3 3 2 2 1 1 1 -1 -1 -0 0 0 0 -0 -0 -1 -2 -2 -3 -4 -4 -5 -5 -6 -6 -7
8 8 8 8 8 8 8 7 7 7 7 7 7 6 6 6 6 5 5 5 5 5 4 4 4 3 3 3 2 3 2 2 1 -1 -2 -2 -2 -1 -1 -1 -1 -1 -2 -3 -5 -6 -7 -8 -9 -10 -11 -12
8 8 8 8 8 8 8 7 7 7 7 6 7 6 6 6 6 5 5 5 5 5 5 4 4 3 3 3 3 3 2 2 1 0 -1 -1 -2 -2 -2 -2 -2 -2 -3 -6 -9 -10 -12 -13 -14 -14 -16 -16
8 7 8 7 7 7 7 7 6 6 6 6 6 6 6 6 5 5 5 5 5 5 5 4 4 3 3 3 3 2 2 2 1 1 0 -1 -1 -2 -2 -3 -4 -5 -8 -11 -13 -14 -15 -15 -15 -15 -15 -15
8 7 8 7 7 6 6 6 6 6 6 6 6 6 5 5 5 5 5 5 5 5 5 4 4 3 3 3 3 2 2 2 1 1 0 -1 -2 -4 -5 -7 -8 -10 -11 -13 -14 -14 -14 -14 -14 -14 -13 -14
7 7 7 7 7 6 6 6 6 6 6 5 5 5 4 4 5 5 4 4 5 5 4 4 4 3 3 3 3 2 2 2 1 1 0 -1 -4 -6 -9 -10 -11 -12 -12 -13 -13 -13 -13 -13 -13 -13 -13 -13
7 6 7 7 7 6 6 5 5 5 5 4 4 4 4 4 4 4 4 4 4 4 4 4 3 3 3 3 2 2 2 2 1 1 -0 -3 -6 -10 -11 -11 -12 -12 -13 -13 -13 -13 -13 -13 -12 -12 -12 -12
7 6 6 6 6 6 6 5 5 5 5 4 4 4 4 3 3 3 3 3 2 2 3 3 3 3 2 2 2 2 2 2 1 0 -2 -5 -9 -11 -12 -12 -12 -13 -13 -13 -13 -13 -13 -12 -12 -12 -12 -12
6 6 6 5 5 5 5 4 4 3 3 3 3 3 3 3 3 3 2 2 1 0 1 2 2 2 2 1 1 1 1 1 -0 -1 -4 -8 -11 -12 -12 -12 -13 -13 -13 -13 -13 -13 -13 -12 -12 -12 -12 -11
5 5 5 5 4 4 4 4 3 2 2 2 2 3 3 3 2 2 2 1 0 -1 -1 0 0 1 1 0 -0 -1 -1 -3 -4 -5 -7 -10 -11 -12 -12 -12 -13 -13 -13 -13 -13 -13 -13 -13 -12 -13 -12 -13
4 4 5 5 4 4 4 3 3 2 2 1 1 1 1 1 1 1 0 0 -1 -2 -2 -1 -1 -1 -1 -2 -3 -4 -5 -7 -8 -10 -11 -12 -12 -12 -13 -13 -13 -13 -13 -13 -13 -14 -15 -15 -15 -15 -15 -15
3 3 3 4 4 4 4 3 3 2 2 1 1 1 0 0 0 0 -0 -0 -1 -2 -3 -3 -2 -2 -3 -4 -5 -6 -8 -9 -10 -11 -11 -11 -11 -11 -11 -11 -12 -12 -13 -14 -15 -16 -17 -17 -17 -17 -17 -17

ECMWFFLT2_850_dewp_222.txt.gz
Dewpoint
12 11 10 10 10 9 9 9 10 10 11 11 11 11 11 11 11 11 10 10 10 10 9 8 7 7 6 5 5 4 4 3 2 -0 -2 -0 3 2 -3 -5 -4 -3 -2 -1 -1 -2 -2 -2 -4 -5 -6 -7
12 11 11 10 9 9 9 9 10 10 11 11 11 11 11 11 11 11 10 10 10 10 9 8 7 6 6 6 5 5 4 3 2 -1 -3 -1 1 -2 -6 -5 -4 -4 -3 -2 -2 -3 -5 -6 -11 -13 -14 -15
12 11 11 10 10 9 9 9 10 11 11 11 11 11 11 11 11 11 10 10 10 9 9 8 7 7 6 6 6 5 5 4 3 -0 -4 -3 -2 -5 -7 -6 -6 -5 -3 -2 -2 -4 -6 -10 -13 -14 -16 -20
11 11 11 11 10 10 9 10 10 10 11 12 12 12 11 11 11 11 10 10 9 9 8 8 7 7 6 6 6 5 5 4 3 1 -4 -5 -5 -6 -6 -6 -6 -6 -5 -4 -3 -4 -6 -11 -12 -13 -18 -22
11 10 11 11 10 10 10 10 10 10 11 12 12 11 11 11 11 11 10 10 9 9 8 8 7 7 6 6 6 5 5 4 3 1 -5 -7 -7 -7 -6 -5 -5 -5 -5 -6 -5 -6 -8 -11 -12 -15 -22 -24
11 10 10 11 10 10 10 10 10 10 11 11 11 11 11 11 11 10 10 9 9 8 8 8 7 7 6 6 6 6 5 4 2 -0 -6 -10 -9 -7 -5 -4 -4 -4 -5 -6 -7 -9 -11 -12 -13 -19 -23 -26
11 10 10 10 10 10 10 9 9 10 10 10 10 11 11 11 10 10 10 9 9 8 8 8 7 7 7 6 6 6 6 3 0 -3 -9 -12 -12 -9 -6 -4 -4 -5 -6 -7 -8 -10 -12 -13 -15 -21 -23 -25
12 11 11 11 11 10 10 10 10 10 9 9 9 10 10 10 10 10 9 9 9 8 8 8 7 7 6 6 6 5 6 3 -3 -9 -13 -15 -16 -13 -9 -8 -6 -6 -7 -9 -11 -11 -13 -14 -18 -25 -27 -25
12 11 11 11 11 11 10 10 10 10 10 9 9 9 10 9 9 10 9 9 8 8 8 7 7 7 6 6 5 5 5 1 -7 -14 -19 -20 -20 -18 -15 -15 -13 -10 -10 -12 -14 -15 -16 -19 -25 -31 -30 -26
11 11 11 11 11 11 11 10 10 10 10 9 9 9 9 9 9 9 9 9 8 8 7 7 7 6 6 5 5 5 5 0 -13 -20 -25 -30 -28 -28 -25 -24 -21 -17 -17 -18 -21 -23 -25 -29 -33 -35 -32 -27
11 11 11 11 11 11 11 10 10 10 9 9 9 9 9 10 10 9 9 8 8 7 7 7 6 6 5 5 5 5 5 0 -16 -30 -29 -36 -34 -34 -35 -34 -29 -25 -24 -25 -29 -33 -34 -36 -35 -34 -33 -30
11 11 11 11 11 11 11 10 10 10 9 9 9 9 9 9 9 9 8 8 7 7 6 6 5 5 4 4 5 4 4 0 -15 -37 -32 -35 -37 -37 -35 -34 -35 -33 -31 -31 -33 -35 -36 -35 -35 -34 -31 -32
11 11 11 11 11 11 11 10 10 9 9 8 8 8 8 9 9 8 8 7 7 6 6 5 4 4 3 2 4 4 3 -3 -15 -32 -36 -36 -34 -37 -35 -35 -37 -35 -35 -34 -34 -34 -35 -34 -32 -32 -30 -31
11 11 11 11 11 11 11 10 10 9 9 8 8 8 8 8 8 8 7 7 6 5 5 4 4 4 1 0 2 4 2 -5 -19 -31 -35 -37 -36 -36 -35 -36 -34 -36 -36 -35 -35 -34 -34 -33 -30 -28 -29 -29
11 11 11 11 11 11 10 10 10 9 8 8 8 7 7 7 7 7 6 6 5 5 4 3 3 2 -1 -2 1 2 0 -5 -18 -32 -34 -34 -35 -35 -35 -36 -35 -35 -34 -33 -33 -32 -32 -30 -27 -25 -25 -26
11 11 11 11 11 11 10 10 10 9 8 8 8 7 7 7 7 7 6 5 5 4 3 3 2 2 -3 -5 -2 -3 -5 -7 -12 -22 -33 -34 -34 -34 -34 -34 -34 -33 -32 -33 -32 -30 -30 -27 -25 -23 -21 -21
11 11 11 11 11 10 10 10 10 9 8 8 7 7 7 7 7 6 6 5 5 4 3 3 2 2 -1 -7 -9 -10 -12 -11 -11 -15 -21 -28 -31 -32 -32 -32 -32 -33 -31 -30 -29 -26 -25 -23 -22 -20 -19 -18
11 11 11 11 10 10 10 10 10 9 8 7 7 7 7 6 6 6 6 5 5 4 3 3 2 2 1 -1 -5 -10 -14 -17 -17 -16 -18 -22 -24 -25 -27 -28 -28 -28 -26 -24 -22 -21 -20 -19 -17 -14 -12 -11
8 9 9 10 11 10 9 10 9 9 8 7 7 7 7 6 7 6 6 5 5 4 4 3 2 1 1 2 0 -2 -6 -11 -13 -14 -15 -17 -18 -20 -19 -19 -20 -20 -19 -17 -15 -14 -12 -9 -7 -5 -4 -3
7 7 6 7 9 9 10 10 9 9 8 8 8 7 7 7 7 7 6 5 5 4 4 3 3 1 1 1 1 1 0 -1 -2 -3 -3 -4 -5 -6 -7 -7 -7 -8 -8 -7 -6 -5 -4 -3 -2 -2 -2 -2
8 8 8 7 7 8 9 9 9 9 9 8 8 8 8 7 7 7 6 5 5 4 4 4 3 2 2 2 1 0 1 1 1 0 0 0 0 0 -0 -0 -0 -1 -1 -1 -2 -2 -2 -2 -2 -3 -3 -5
8 9 9 9 8 8 9 9 9 9 8 8 8 8 8 7 7 7 6 6 5 4 4 3 3 3 3 3 2 0 -0 0 1 0 -1 -1 -1 -1 -0 -0 -0 -0 -0 -1 -1 -3 -3 -4 -5 -6 -8 -9
8 9 9 9 9 8 9 8 8 7 7 8 8 8 8 7 7 7 6 6 5 5 4 4 3 3 3 3 2 1 0 1 1 1 -0 -1 -2 -2 -2 -2 -2 -2 -2 -2 -3 -4 -5 -7 -9 -10 -12 -13
7 8 9 9 8 8 8 7 6 6 7 8 8 8 7 6 6 7 6 6 5 5 4 4 3 3 3 3 3 2 2 2 2 1 0 -1 -1 -1 -2 -3 -3 -3 -4 -4 -5 -7 -8 -10 -12 -13 -13 -13
8 8 8 8 8 8 7 7 6 6 7 7 7 6 6 5 6 6 6 6 5 5 4 4 4 3 3 3 3 2 2 3 2 1 1 -0 -0 -1 -2 -3 -3 -4 -6 -6 -7 -9 -11 -12 -13 -13 -13 -13
8 8 8 8 8 8 7 7 6 6 6 6 6 5 5 5 5 5 6 6 5 4 4 4 4 3 2 2 2 2 2 2 2 1 1 0 -0 -2 -2 -3 -4 -5 -9 -11 -10 -10 -12 -13 -13 -12 -12 -12
7 8 8 8 7 7 7 6 6 5 5 6 6 6 5 5 4 5 4 4 4 4 4 4 4 2 1 1 1 1 2 2 1 1 1 0 -1 -3 -4 -6 -7 -7 -10 -12 -12 -12 -11 -12 -12 -11 -12 -12
7 7 7 7 7 7 7 6 6 5 5 6 6 5 5 5 5 4 4 3 3 3 3 3 4 3 2 0 0 0 1 1 1 1 0 -1 -3 -5 -7 -9 -10 -11 -12 -12 -12 -12 -11 -11 -11 -10 -11 -12
7 7 7 7 7 6 6 6 5 5 5 5 5 4 4 4 4 3 3 3 3 3 3 3 3 4 3 0 -1 -1 -1 -1 -0 -0 -0 -1 -3 -5 -8 -9 -9 -11 -11 -11 -12 -12 -11 -11 -10 -9 -11 -11
6 6 6 6 6 6 6 5 5 5 4 4 3 3 3 3 3 2 2 2 2 2 1 1 1 1 1 -1 -2 -2 -3 -2 -1 -0 -0 -1 -2 -5 -7 -7 -8 -9 -10 -11 -12 -12 -12 -11 -10 -10 -11 -11
5 4 4 4 5 5 5 5 5 4 4 3 3 2 2 2 2 2 2 1 1 0 -0 -1 -1 -1 -1 -2 -2 -3 -2 -1 -0 0 -1 -2 -4 -6 -7 -9 -9 -10 -10 -11 -11 -12 -12 -11 -11 -10 -11 -11

ECMWFFLT2_850_dewp_228.txt.gz
Dewpoint
13 13 13 13 13 13 12 11 12 12 11 11 11 10 10 10 10 10 11 11 11 11 11 10 10 9 8 7 7 6 4 3 5 9 10 9 8 3 -5 -6 -6 -5 -4 -2 2 5 8 7 6 7 7 7
13 13 13 13 13 13 12 11 11 11 10 11 11 10 10 11 11 10 11 11 11 11 11 11 10 9 8 6 6 5 4 3 5 8 10 10 9 5 -2 -4 -4 -3 -3 -1 2 6 7 6 6 7 8 8
13 13 13 13 13 13 12 11 11 11 9 10 11 10 10 11 11 11 11 11 11 11 11 11 10 9 9 8 6 5 4 3 4 8 10 10 9 6 0 -2 -2 -2 -2 -0 2 4 6 6 6 6 7 7
12 12 12 12 13 12 12 11 11 10 9 11 11 10 11 11 12 11 11 11 11 11 11 11 11 10 9 8 7 6 5 4 4 8 10 10 9 7 3 1 0 0 0 1 2 3 4 4 5 5 6 6
13 12 12 12 12 12 12 12 11 10 9 11 11 11 11 11 12 11 11 11 11 11 11 11 10 10 9 8 8 7 6 5 4 7 9 9 9 7 5 4 4 3 3 3 3 2 1 2 4 5 6 6
13 13 12 12 12 12 12 11 10 10 10 10 11 11 11 12 12 12 11 11 11 11 11 10 10 10 9 9 8 7 6 5 5 7 9 8 8 8 6 6 6 5 5 5 3 1 -1 0 2 4 6 6
13 13 13 12 12 12 12 11 10 9 10 11 11 11 11 12 12 12 12 11 11 11 11 10 10 10 9 9 8 7 7 6 5 6 7 7 7 8 8 7 8 7 6 5 4 0 -3 -1 0 3 5 5
12 12 12 12 12 12 12 11 11 9 10 11 11 11 11 12 12 12 12 11 11 11 11 11 11 10 9 9 8 8 7 6 6 5 5 6 7 8 8 8 8 7 6 6 4 1 -3 -2 -1 1 3 2
12 12 12 12 12 12 12 11 11 10 9 10 11 11 11 11 12 12 12 12 11 11 11 11 10 10 9 8 8 8 7 7 7 6 4 3 5 7 8 8 8 7 7 6 4 1 -1 -2 -3 -1 0 -1
12 12 12 12 12 12 12 11 11 10 9 10 11 11 11 11 12 12 12 12 11 11 11 11 10 9 9 8 8 8 7 7 7 7 5 2 4 7 8 8 8 7 6 6 4 2 2 -0 -4 -2 -2 -5
12 12 12 12 12 12 12 12 11 10 9 9 10 11 11 11 12 12 12 12 11 11 11 10 10 9 8 8 8 7 7 7 7 7 6 3 3 6 7 7 7 7 6 5 4 3 3 1 -1 -4 -7 -5
12 12 12 12 12 12 12 12 12 10 10 10 10 11 11 11 11 11 11 11 11 11 10 10 9 9 8 8 8 7 7 7 7 6 6 4 3 6 7 7 7 7 6 5 4 3 3 2 1 -4 -10 -3
11 12 12 12 12 12 12 12 12 11 10 10 10 10 11 11 11 11 11 11 11 10 10 9 9 9 9 8 7 7 7 6 6 6 6 4 3 6 7 7 7 7 6 5 4 4 4 3 2 -2 -9 -3
10 11 12 12 12 12 12 12 12 11 11 11 11 11 11 11 11 11 10 10 10 10 9 9 9 9 8 8 7 7 7 6 6 5 5 3 3 6 7 7 7 6 5 5 4 4 4 3 3 1 -6 -4
10 10 11 11 11 11 11 11 11 11 11 11 11 11 10 11 11 11 10 10 10 9 9 9 9 9 8 8 8 7 7 6 5 4 3 2 3 6 7 6 6 6 5 4 4 4 4 3 3 1 -4 -4
9 10 10 11 11 11 11 11 11 10 10 11 11 11 10 10 10 10 10 10 10 10 9 9 9 9 8 8 7 7 6 5 4 2 0 -0 3 5 6 5 5 5 4 4 4 4 3 3 2 0 -3 -4
9 10 10 10 11 11 11 11 11 10 10 10 10 10 10 9 9 10 10 10 10 10 10 9 9 8 8 7 7 6 5 4 4 1 -3 -4 1 4 4 4 4 4 4 4 3 3 2 1 -0 -1 -3 -4
9 9 10 10 10 10 10 11 11 11 11 10 10 9 9 9 9 9 9 9 9 10 10 9 9 8 7 7 6 5 4 3 3 -0 -6 -8 -2 2 3 3 3 3 3 3 2 1 -0 -2 -3 -4 -4 -5
8 8 8 7 8 8 9 10 10 10 10 10 10 9 10 9 8 8 8 8 9 9 9 8 8 7 7 6 5 4 3 1 0 -3 -7 -9 -5 -1 1 1 1 1 1 -0 -1 -3 -4 -6 -7 -7 -9 -10
6 6 7 7 7 7 7 8 9 10 9 8 9 9 9 8 7 7 8 8 8 8 8 7 7 7 6 5 4 3 1 -1 -3 -5 -9 -8 -7 -5 -3 -1 -2 -2 -3 -4 -6 -8 -11 -13 -14 -16 -19 -21
7 7 7 8 8 8 8 8 8 9 8 7 7 8 8 8 7 8 8 7 7 8 7 7 7 7 6 5 4 2 -0 -3 -5 -8 -12 -8 -6 -7 -8 -5 -5 -6 -7 -10 -13 -16 -20 -22 -24 -26 -27 -27
8 8 8 8 8 8 8 8 8 8 7 6 6 7 8 8 8 8 8 6 6 7 7 7 7 7 6 5 4 3 1 -2 -7 -11 -12 -9 -7 -7 -9 -9 -9 -11 -14 -17 -21 -24 -25 -25 -25 -24 -23 -23
8 8 8 8 8 8 8 8 8 7 7 7 6 7 7 8 8 8 7 6 7 8 8 8 7 6 6 5 4 3 1 -1 -5 -11 -13 -11 -10 -10 -11 -14 -15 -19 -22 -23 -24 -24 -23 -21 -20 -19 -18 -17
7 7 7 7 7 7 7 7 7 7 7 7 7 7 7 7 7 7 7 6 7 8 8 8 7 6 5 4 4 3 2 0 -3 -9 -13 -15 -16 -15 -15 -16 -19 -21 -22 -23 -22 -20 -20 -18 -16 -15 -13 -13
7 7 7 7 6 6 7 7 7 7 7 7 7 7 7 7 7 6 6 6 6 7 7 7 6 5 5 4 3 3 2 -0 -3 -6 -8 -12 -15 -17 -18 -17 -17 -18 -18 -20 -19 -17 -16 -14 -13 -12 -11 -11
7 7 7 7 6 6 6 7 7 7 7 7 7 7 7 7 6 6 6 6 6 6 6 6 5 5 5 4 3 3 2 1 -3 -6 -6 -7 -10 -13 -15 -16 -16 -16 -16 -16 -16 -14 -12 -11 -10 -10 -10 -10
6 7 7 7 7 6 6 6 7 7 7 7 7 7 7 6 6 6 6 6 6 6 5 5 4 5 5 4 3 2 1 0 -2 -6 -7 -7 -9 -11 -12 -13 -13 -13 -13 -12 -12 -11 -9 -9 -9 -10 -11 -11
6 6 6 6 6 6 6 6 6 6 6 7 7 7 6 6 6 6 7 6 6 5 5 4 4 4 4 4 3 2 -0 -1 -1 -3 -6 -7 -10 -11 -10 -8 -8 -8 -8 -8 -8 -7 -6 -7 -8 -9 -10 -11
5 5 6 6 6 6 5 5 5 6 6 6 6 6 6 6 6 6 6 6 5 5 4 4 4 3 3 3 3 2 0 -1 -1 -1 -4 -6 -8 -9 -7 -5 -3 -3 -4 -5 -5 -4 -4 -6 -7 -7 -7 -8
4 5 5 5 5 5 5 5 5 5 5 6 6 6 6 5 5 5 5 5 5 5 4 4 4 3 4 4 3 3 1 -1 -1 -1 -2 -3 -5 -5 -5 -3 -1 -0 -1 -2 -3 -3 -3 -3 -4 -5 -6 -7
4 4 4 4 4 4 4 4 4 4 4 5 5 5 5 5 5 5 5 5 5 4 4 4 4 4 4 4 3 3 1 -0 -1 -1 -1 -3 -3 -3 -3 -2 -1 0 -0 -1 -2 -2 -2 -3 -4 -4 -5 -7

ECMWFFLT2_850_dewp_234.txt.gz
Dewpoint
11 11 11 11 11 12 12 13 13 13 13 13 13 12 12 11 12 13 12 12 10 10 10 11 10 10 9 7 8 8 8 8 7 7 6 6 6 3 1 0 0 5 6 5 6 7 7 7 8 9 9 9
11 11 11 12 12 12 12 12 13 13 13 13 13 12 12 11 12 13 12 12 11 10 11 11 11 10 10 9 7 8 8 7 7 8 8 8 7 5 2 2 4 7 7 7 8 8 8 8 8 9 9 9
12 12 11 12 12 13 13 12 12 13 13 13 13 12 12 11 12 12 12 12 11 11 11 11 11 11 11 10 8 8 8 7 6 7 9 9 8 6 3 4 6 7 8 9 9 9 9 9 9 9 9 9
13 12 12 11 12 13 13 13 12 12 13 13 13 12 12 11 11 12 12 12 12 11 11 11 11 11 11 11 9 8 8 8 7 6 8 9 9 8 4 4 7 8 9 9 9 9 9 9 9 9 9 8
12 12 11 11 11 12 12 13 13 12 13 13 12 12 11 11 11 11 11 12 12 12 11 11 11 11 11 11 10 10 9 9 8 6 7 9 9 9 6 3 6 9 9 9 9 9 9 9 9 9 8 8
10 10 11 11 11 11 11 12 13 13 13 13 12 12 11 11 11 10 10 11 12 12 11 11 11 11 11 10 11 11 9 9 9 7 7 8 8 9 9 5 4 8 9 9 9 9 9 9 9 8 8 8
8 9 9 10 10 11 11 12 13 13 13 13 12 12 11 11 11 10 10 10 11 12 12 11 11 12 11 11 11 11 10 9 9 8 7 7 7 8 9 8 5 5 8 9 9 9 9 9 8 8 8 8
6 6 7 8 10 11 11 11 12 13 13 13 12 12 12 12 11 11 10 10 11 12 12 11 11 11 11 11 11 11 10 10 9 9 8 7 7 7 8 9 7 5 6 8 9 9 9 8 8 8 8 8
4 5 6 8 9 10 10 11 11 12 12 13 13 12 12 12 11 11 11 10 10 11 12 12 11 11 11 11 11 11 10 10 9 9 9 8 7 7 7 8 8 7 5 6 8 9 9 8 8 8 7 7
4 4 5 7 9 9 10 10 10 11 11 12 12 12 12 12 12 11 11 11 10 11 12 12 12 11 11 11 11 10 10 10 10 9 9 8 7 8 8 8 8 8 7 5 6 8 8 8 8 8 7 7
4 4 5 6 8 9 9 10 10 10 11 11 12 12 12 12 12 11 11 11 10 11 11 12 12 12 11 11 11 11 10 10 10 9 9 9 7 7 9 9 8 9 8 6 5 5 7 7 7 8 7 7
4 5 5 5 7 8 9 9 9 10 10 10 11 11 12 12 12 12 11 11 10 10 11 12 12 12 11 11 11 11 10 10 9 9 9 8 7 8 9 9 9 9 8 7 6 5 6 6 6 7 7 7
5 5 6 6 7 8 8 8 9 9 9 9 10 11 11 12 12 11 11 11 11 11 11 11 11 11 11 11 11 11 10 10 10 9 9 7 7 9 9 9 9 8 8 8 7 7 6 6 6 6 7 7
5 6 6 7 7 7 7 8 9 9 10 10 10 10 11 11 11 11 11 12 10 10 11 11 11 11 10 10 9 9 9 9 9 9 8 7 8 9 9 8 8 8 8 7 7 7 7 6 6 6 6 7
5 6 6 6 7 7 8 8 9 10 10 10 10 10 11 11 11 11 11 10 8 8 9 10 11 10 9 9 8 8 8 8 8 8 8 7 8 9 8 8 8 7 7 7 7 6 6 6 6 6 6 6
5 5 5 6 7 7 8 8 9 10 10 10 10 10 10 10 10 10 11 10 8 7 7 9 10 9 10 9 8 7 7 8 8 7 7 7 8 8 8 7 7 7 7 6 6 6 6 6 6 6 6 6
6 6 6 7 7 8 8 8 9 9 9 10 10 10 10 10 10 10 11 10 10 9 8 9 8 6 8 9 7 7 7 7 7 7 7 7 7 7 7 7 7 6 6 6 6 6 6 6 6 6 6 6
7 7 7 7 7 7 8 8 8 8 9 9 9 9 10 10 10 10 10 10 10 10 10 10 7 5 6 8 8 7 6 6 6 6 7 7 7 6 6 6 6 6 6 5 5 5 5 5 5 5 5 5
7 8 7 7 6 6 7 7 7 7 8 8 9 9 9 9 10 10 10 9 9 9 9 9 9 8 8 8 8 7 7 6 6 6 6 6 6 5 5 5 6 6 5 5 5 5 4 5 5 5 5 5
7 7 8 7 7 7 7 7 7 7 7 7 8 8 9 9 9 9 9 9 8 8 8 9 9 9 9 9 8 7 7 6 6 6 6 6 5 5 5 5 5 5 5 5 4 4 4 4 4 4 4 5
7 7 7 8 8 7 7 7 7 7 7 7 7 7 8 8 8 8 8 7 7 7 8 8 8 8 8 8 8 7 7 6 6 6 6 5 5 4 4 4 5 5 4 4 4 4 3 3 3 4 4 4
6 6 7 7 7 7 7 7 7 6 6 7 7 7 7 7 7 7 7 6 6 6 7 7 7 7 7 7 7 7 7 6 6 6 5 5 4 4 4 4 4 4 4 4 4 3 3 2 2 3 3 3
5 6 6 6 6 7 7 7 6 6 6 6 6 7 7 7 7 7 7 6 6 6 6 7 7 7 7 7 7 7 6 6 5 5 4 4 4 4 4 4 3 4 4 4 4 3 3 2 2 2 2 2
4 5 5 6 6 6 6 6 6 6 6 6 6 6 6 6 6 6 6 6 6 6 6 6 6 6 6 6 6 6 6 6 5 4 4 4 4 4 4 3 3 3 3 3 3 2 2 2 1 1 1 1
4 4 5 5 5 6 6 6 6 6 6 5 5 5 5 6 6 6 6 6 6 6 6 6 6 6 6 5 6 6 5 5 5 4 4 4 3 3 3 3 3 3 2 2 1 1 1 1 1 1 0 0
3 4 4 5 5 5 5 6 5 5 6 5 6 5 5 5 6 6 6 6 6 5 6 6 6 6 5 5 5 5 5 4 4 4 4 4 3 2 2 2 2 2 1 1 1 1 0 -0 -0 -1 -1 -1
2 3 4 4 4 5 5 5 5 5 5 6 6 5 5 5 5 6 6 6 5 5 5 5 5 5 5 5 4 4 4 4 3 3 3 3 3 2 2 1 1 1 1 0 0 -0 -1 -1 -1 -2 -3 -3
-0 1 2 3 3 4 4 4 5 5 5 5 5 5 5 5 5 5 5 5 5 5 5 4 4 5 5 4 3 3 3 3 3 2 2 2 1 2 2 1 0 -0 -0 -0 -1 -1 -1 -2 -3 -4 -5 -5
-4 -2 -0 1 2 3 3 3 4 4 4 4 4 4 4 4 4 5 5 5 4 4 4 4 4 4 4 4 3 2 2 1 1 2 1 1 1 1 1 1 0 -1 -1 -1 -2 -1 -2 -3 -4 -4 -5 -6
-8 -6 -4 -2 0 2 2 3 3 3 3 3 3 3 3 3 3 3 3 3 3 3 3 3 3 3 3 3 3 2 2 1 0 0 1 1 0 0 0 -0 -0 -1 -2 -2 -2 -2 -2 -2 -3 -3 -4 -7
-10 -9 -7 -5 -3 -1 1 2 2 2 3 3 3 3 3 3 2 2 2 2 2 2 2 2 2 2 2 1 2 2 1 1 0 0 0 0 -0 -0 -1 -1 -1 -1 -2 -2 -2 -2 -3 -3 -3 -3 -3 -5